カタログに戻る

FENGYUN 1C DEB

運用中PO
NORAD 37476·DEBRIS·🇨🇳 China

打ち上げ May 10, 1999 から Taiyuan Satellite Launch Center

Loading…

次のパス (今後24時間)

TLE

経年Source: Space-Track

元期: Sep 9, 2026, 17:03 UTC

1 37476U 99025EJW 26252.71050988  .00000533  00000-0  14328-2 0  9998
2 37476  98.9468 196.7121 1075798  58.7928 311.4091 11.91550176706701

AllMySatでFENGYUN 1C DEBをリアルタイム追跡

Download on the App Store